Nebraska City, NE

6:07 PM CST on January 23, 2018 (GMT -0600)
Nebraska City Municipal

Weather History for KAFK - January, 2014

Change the Weather History Date:

Sunday, January 12, 2014

  Actual Average (KSDA) Record (KSDA)
Temperature  
Mean Temperature 44 °F -  
Max Temperature 52 °F 29 °F 60 °F (1986)
Min Temperature 35 °F 11 °F -99 °F (2001)
Degree Days  
Heating Degree Days 22    
Moisture  
Dew Point 30 °F    
Average Humidity 64    
Maximum Humidity 79    
Minimum Humidity 44    
Precipitation  
Precipitation 0.00 in - - ()
Sea Level Pressure  
Sea Level Pressure 29.58 in    
Wind  
Wind Speed 14 mph (WSW)    
Max Wind Speed 20 mph    
Max Gust Speed 25 mph    
Visibility 10 miles    
Events Rain    
Averages and records for this station are not official NWS values.
T = Trace of Precipitation, MM = Missing Value Source: NWS Daily Summary

Daily Weather History Graph

Daily Weather History Graph

Search for Another Location

Airport or City:

Trip Planner

Search our weather history database for the weather conditions in past years. The results will help you decide how hot, cold, wet, or windy it might be!

Date:

Astronomy

Jan. 12, 2014 Rise Set
Actual Time 7:46 AM CST 5:17 PM CST
Civil Twilight 7:15 AM CST 5:48 PM CST
Nautical Twilight 6:42 AM CST 6:21 PM CST
Astronomical Twilight 6:09 AM CST 6:54 PM CST
Moon 2:46 PM CST (1/12) 4:45 AM CST (1/12)
Length of Visible Light 10h 32m
Length of Day
9h 31m
Waxing Gibbous, 90% of the Moon is Illuminated
Jan 12
Waxing Gibbous
Jan 15
Full
Jan 23
Last Quarter
Jan 30
New
Feb 6
First Quarter

Hourly Weather History & Observations

Time (CST) Temp. Windchill Dew Point Humidity Pressure Visibility Wind Dir Wind Speed Gust Speed Precip Events Conditions
12:15 AM 36.3 °F 26.4 °F 29.7 °F 77% 29.74 in 10.0 mi SSW 17.3 mph - N/A   Clear
12:35 AM 36.5 °F 27.0 °F 29.7 °F 76% 29.73 in 10.0 mi SSW 16.1 mph 21.9 mph N/A   Clear
12:55 AM 35.2 °F 25.8 °F 29.3 °F 79% 29.71 in 10.0 mi South 15.0 mph - N/A   Clear
1:15 AM 35.2 °F 25.8 °F 29.3 °F 79% 29.70 in 10.0 mi South 15.0 mph - N/A   Clear
1:35 AM 35.6 °F 26.2 °F 29.3 °F 78% 29.69 in 10.0 mi South 15.0 mph - N/A   Clear
1:55 AM 35.4 °F 25.6 °F 29.3 °F 78% 29.68 in 10.0 mi South 16.1 mph - N/A   Clear
2:15 AM 35.2 °F 26.2 °F 29.3 °F 79% 29.67 in 10.0 mi South 13.8 mph - N/A   Clear
2:35 AM 36.9 °F 27.1 °F 29.3 °F 74% 29.66 in 10.0 mi SSW 17.3 mph - N/A   Clear
2:55 AM 36.7 °F 26.9 °F 29.3 °F 75% 29.64 in 10.0 mi SSW 17.3 mph - N/A   Clear
3:15 AM 37.2 °F 27.9 °F 29.3 °F 73% 29.64 in 10.0 mi SSW 16.1 mph - N/A   Clear
3:35 AM 37.0 °F 28.1 °F 29.3 °F 74% 29.63 in 10.0 mi South 15.0 mph - N/A   Clear
3:55 AM 37.2 °F 29.1 °F 28.9 °F 72% 29.62 in 10.0 mi South 12.7 mph - N/A   Clear
4:15 AM 35.6 °F 26.6 °F 28.8 °F 76% 29.61 in 10.0 mi South 13.8 mph - N/A   Clear
4:35 AM 36.0 °F 27.5 °F 28.4 °F 74% 29.60 in 10.0 mi SSW 12.7 mph - N/A   Clear
4:55 AM 37.4 °F 28.5 °F 28.4 °F 70% 29.60 in 10.0 mi SSW 15.0 mph - N/A   Clear
5:15 AM 37.9 °F 28.9 °F 28.2 °F 68% 29.60 in 10.0 mi SSW 16.1 mph - N/A   Clear
5:35 AM 37.6 °F 28.1 °F 28.4 °F 69% 29.59 in 10.0 mi South 17.3 mph - N/A   Clear
5:55 AM 36.7 °F 28.9 °F 28.2 °F 71% 29.59 in 10.0 mi SSW 11.5 mph - N/A   Clear
6:15 AM 36.5 °F 28.7 °F 28.0 °F 71% 29.58 in 10.0 mi South 11.5 mph - N/A   Clear
6:35 AM 35.4 °F 29.7 °F 27.7 °F 73% 29.60 in 10.0 mi SSW 6.9 mph - N/A   Clear
6:55 AM 35.1 °F 26.9 °F 27.9 °F 75% 29.57 in 10.0 mi South 11.5 mph - N/A   Clear
7:15 AM 35.6 °F 27.1 °F 28.0 °F 74% 29.55 in 10.0 mi South 12.7 mph - N/A   Clear
7:35 AM 35.4 °F 25.3 °F 28.0 °F 75% 29.54 in 10.0 mi South 17.3 mph - N/A   Clear
7:55 AM 36.9 °F 27.8 °F 28.0 °F 70% 29.55 in 10.0 mi SSW 15.0 mph 19.6 mph N/A   Clear
8:15 AM 37.6 °F 29.1 °F 28.4 °F 69% 29.54 in 10.0 mi SSW 13.8 mph - N/A   Clear
8:35 AM 37.9 °F 29.6 °F 28.4 °F 69% 29.53 in 10.0 mi SSW 13.8 mph - N/A   Clear
8:55 AM 38.3 °F 30.1 °F 28.4 °F 68% 29.54 in 10.0 mi SSW 13.8 mph - N/A   Clear
9:15 AM 39.2 °F 31.2 °F 28.8 °F 66% 29.54 in 10.0 mi SSW 13.8 mph - N/A   Clear
9:35 AM 40.3 °F 33.4 °F 29.1 °F 64% 29.54 in 10.0 mi SSW 11.5 mph - N/A   Clear
9:55 AM 41.5 °F 34.2 °F 29.5 °F 62% 29.53 in 10.0 mi SSW 13.8 mph - N/A   Clear
10:15 AM 43.0 °F 35.4 °F 30.0 °F 60% 29.53 in 10.0 mi SSW 16.1 mph 20.7 mph N/A   Clear
10:35 AM 44.8 °F 37.4 °F 29.3 °F 55% 29.53 in 10.0 mi SW 17.3 mph - N/A   Clear
10:55 AM 46.6 °F - 30.0 °F 53% 29.52 in 10.0 mi SW 18.4 mph 23.0 mph N/A   Clear
11:15 AM 46.4 °F 39.2 °F 29.8 °F 53% 29.51 in 10.0 mi SW 18.4 mph 23.0 mph N/A   Clear
11:35 AM 47.3 °F - 30.6 °F 52% 29.50 in 10.0 mi SW 16.1 mph - N/A   Clear
11:55 AM 48.2 °F - 31.6 °F 53% 29.48 in 10.0 mi SW 12.7 mph - N/A   Clear
12:15 PM 48.7 °F - 30.6 °F 50% 29.48 in 10.0 mi WSW 9.2 mph - N/A   Clear
12:35 PM 49.3 °F - 29.8 °F 47% 29.48 in 10.0 mi WSW 12.7 mph - N/A   Clear
12:55 PM 50.2 °F - 30.7 °F 47% 29.47 in 10.0 mi WSW 9.2 mph - N/A   Clear
1:15 PM 50.4 °F - 30.0 °F 46% 29.46 in 10.0 mi WSW 9.2 mph - N/A   Clear
1:35 PM 50.9 °F - 29.8 °F 44% 29.45 in 10.0 mi SW 10.4 mph - N/A   Clear
1:55 PM 51.8 °F - 30.7 °F 45% 29.46 in 10.0 mi SW 10.4 mph - N/A   Clear
2:15 PM 51.6 °F - 31.1 °F 45% 29.46 in 10.0 mi SW 9.2 mph - N/A   Clear
2:35 PM 52.2 °F - 31.1 °F 45% 29.47 in 10.0 mi WSW 10.4 mph - N/A   Clear
2:55 PM 51.8 °F - 31.8 °F 47% 29.49 in 10.0 mi WSW 8.1 mph - N/A   Clear
3:15 PM 52.0 °F - 31.8 °F 46% 29.50 in 10.0 mi West 6.9 mph - N/A   Clear
3:35 PM 51.1 °F - 31.3 °F 47% 29.50 in 10.0 mi West 6.9 mph - N/A   Clear
3:55 PM 50.0 °F - 32.0 °F 50% 29.52 in 10.0 mi West 5.8 mph - N/A   Clear
4:15 PM 49.1 °F - 31.8 °F 51% 29.53 in 10.0 mi WNW 5.8 mph - N/A   Clear
4:35 PM 47.8 °F - 32.0 °F 54% 29.54 in 10.0 mi WNW 5.8 mph - N/A   Clear
4:55 PM 47.1 °F - 31.6 °F 55% 29.55 in 10.0 mi West 6.9 mph - N/A   Clear
5:15 PM 46.4 °F 42.4 °F 31.5 °F 56% 29.55 in 10.0 mi WNW 8.1 mph - N/A   Clear
5:35 PM 45.0 °F 41.2 °F 31.6 °F 60% 29.56 in 10.0 mi NW 6.9 mph - N/A   Clear
5:55 PM 44.4 °F 40.0 °F 32.0 °F 62% 29.57 in 10.0 mi NNW 8.1 mph - N/A   Clear
6:15 PM 44.4 °F 40.5 °F 32.0 °F 62% 29.58 in 10.0 mi NNW 6.9 mph - N/A   Clear
6:35 PM 44.6 °F 39.2 °F 32.0 °F 61% 29.59 in 10.0 mi NNW 10.4 mph - N/A   Scattered Clouds
6:55 PM 44.6 °F 38.4 °F 32.0 °F 61% 29.60 in 10.0 mi NNW 12.7 mph - N/A   Mostly Cloudy
7:15 PM 44.6 °F 38.8 °F 32.0 °F 61% 29.60 in 10.0 mi NNW 11.5 mph - N/A   Scattered Clouds
7:35 PM 44.1 °F 37.7 °F 32.0 °F 63% 29.60 in 10.0 mi NNW 12.7 mph - N/A   Scattered Clouds
7:55 PM 44.1 °F 38.1 °F 32.0 °F 63% 29.60 in 10.0 mi North 11.5 mph - N/A   Overcast
8:15 PM 42.6 °F 36.8 °F 32.0 °F 66% 29.60 in 10.0 mi NNW 10.4 mph - N/A   Scattered Clouds
8:35 PM 43.0 °F 36.0 °F 32.0 °F 65% 29.61 in 10.0 mi NNW 13.8 mph - N/A   Scattered Clouds
8:55 PM 42.8 °F 36.6 °F 31.6 °F 65% 29.62 in 10.0 mi NNW 11.5 mph - N/A   Scattered Clouds
9:15 PM 42.6 °F 37.2 °F 31.5 °F 65% 29.63 in 10.0 mi NNW 9.2 mph - N/A   Scattered Clouds
9:35 PM 41.0 °F 35.8 °F 31.6 °F 69% 29.64 in 10.0 mi NNW 8.1 mph - N/A   Mostly Cloudy
9:55 PM 42.1 °F 37.7 °F 32.0 °F 67% 29.65 in 10.0 mi NW 6.9 mph - N/A   Overcast
10:15 PM 42.6 °F 35.2 °F 32.0 °F 66% 29.67 in 10.0 mi NW 15.0 mph - N/A   Overcast
10:35 PM 43.3 °F 36.5 °F 32.4 °F 65% 29.67 in 10.0 mi NNW 13.8 mph - N/A   Light Drizzle
10:55 PM 42.8 °F 34.3 °F 34.2 °F 72% 29.69 in 10.0 mi NNW 19.6 mph 25.3 mph N/A Rain Rain
11:15 PM 43.7 °F 38.1 °F 35.8 °F 74% 29.69 in 10.0 mi NNW 10.4 mph - N/A Rain Light Rain
11:35 PM 44.6 °F 38.8 °F 34.9 °F 69% 29.69 in 10.0 mi NW 11.5 mph - N/A Rain Light Rain
11:55 PM 44.1 °F 40.1 °F 34.5 °F 69% 29.69 in 10.0 mi NW 6.9 mph 17.3 mph N/A   Light Drizzle